Time,TemperatureF,DewpointF,PressureIn,WindDirection,WindDirectionDegrees,WindSpeedMPH,WindSpeedGustMPH,Humidity,HourlyPrecipIn,Conditions,Clouds,dailyrainin,SolarRadiationWatts/m^2,SoftwareType,DateUTC
2013-09-13 03:23:00,70.0,37.0,30.03,South,173,1.0,5.0,30,-99.99,,,0.00,0.000000,,2013-09-13 10:23:00,
2013-09-13 03:33:00,70.0,37.0,30.03,South,173,1.0,5.0,30,-99.99,,,0.00,0.000000,,2013-09-13 10:33:00,
2013-09-13 04:22:00,68.0,43.0,30.01,SSE,166,4.0,7.0,40,0.00,,,0.00,0.000000,,2013-09-13 11:22:00,
2013-09-13 04:33:00,68.0,43.0,30.01,SSE,166,4.0,7.0,40,0.00,,,0.00,0.000000,,2013-09-13 11:33:00,
2013-09-13 05:21:00,69.0,47.0,30.01,SSE,162,4.0,8.0,46,0.00,,,0.00,0.000000,,2013-09-13 12:21:00,
2013-09-13 05:32:00,69.0,47.0,30.01,SSE,162,4.0,8.0,46,0.00,,,0.00,0.000000,,2013-09-13 12:32:00,
2013-09-13 06:21:00,70.0,43.0,30.01,South,187,4.0,52.0,37,0.00,,,0.00,0.000000,,2013-09-13 13:21:00,
2013-09-13 06:32:00,70.0,43.0,30.01,South,187,4.0,52.0,37,0.00,,,0.00,0.000000,,2013-09-13 13:32:00,
2013-09-13 10:23:00,85.0,53.0,30.01,East,99,5.0,8.0,33,0.00,,,0.00,381.000000,,2013-09-13 17:23:00,
2013-09-13 10:33:00,85.0,53.0,30.01,East,99,5.0,8.0,33,0.00,,,0.00,381.000000,,2013-09-13 17:33:00,
2013-09-13 10:44:00,85.0,53.0,30.01,East,99,5.0,8.0,33,0.00,,,0.00,381.000000,,2013-09-13 17:44:00,
2013-09-13 10:52:00,85.0,53.0,30.01,East,99,5.0,8.0,33,0.00,,,0.00,381.000000,,2013-09-13 17:52:00,
2013-09-13 11:22:00,87.0,50.0,30.01,WSW,250,4.0,12.0,28,0.00,,,0.00,591.000000,,2013-09-13 18:22:00,
2013-09-13 11:32:00,87.0,50.0,30.01,WSW,250,4.0,12.0,28,0.00,,,0.00,591.000000,,2013-09-13 18:32:00,
2013-09-13 11:42:00,87.0,50.0,30.01,WSW,250,4.0,12.0,28,0.00,,,0.00,591.000000,,2013-09-13 18:42:00,
2013-09-13 11:52:00,87.0,50.0,30.01,WSW,250,4.0,12.0,28,0.00,,,0.00,591.000000,,2013-09-13 18:52:00,
2013-09-13 12:22:00,87.0,52.0,29.99,WNW,289,9.0,14.0,30,0.00,,,0.00,699.000000,,2013-09-13 19:22:00,
2013-09-13 12:32:00,87.0,52.0,29.99,WNW,289,9.0,14.0,30,0.00,,,0.00,699.000000,,2013-09-13 19:32:00,
2013-09-13 12:42:00,87.0,52.0,29.99,WNW,289,9.0,14.0,30,0.00,,,0.00,699.000000,,2013-09-13 19:42:00,
2013-09-13 12:52:00,87.0,52.0,29.99,WNW,289,9.0,14.0,30,0.00,,,0.00,699.000000,,2013-09-13 19:52:00,
2013-09-13 13:22:00,88.0,51.0,29.97,WNW,290,10.0,15.0,28,0.00,,,0.00,775.000000,,2013-09-13 20:22:00,
2013-09-13 13:32:00,88.0,51.0,29.97,WNW,290,10.0,15.0,28,0.00,,,0.00,775.000000,,2013-09-13 20:32:00,
2013-09-13 13:42:00,88.0,51.0,29.97,WNW,290,10.0,15.0,28,0.00,,,0.00,775.000000,,2013-09-13 20:42:00,
2013-09-13 13:52:00,88.0,51.0,29.97,WNW,290,10.0,15.0,28,0.00,,,0.00,775.000000,,2013-09-13 20:52:00,
2013-09-13 14:21:00,87.0,49.0,29.94,WNW,289,10.0,16.0,27,0.00,,,0.00,767.000000,,2013-09-13 21:21:00,
2013-09-13 14:34:00,87.0,49.0,29.94,WNW,289,10.0,16.0,27,0.00,,,0.00,767.000000,,2013-09-13 21:34:00,
2013-09-13 14:44:00,87.0,49.0,29.94,WNW,289,10.0,16.0,27,0.00,,,0.00,767.000000,,2013-09-13 21:44:00,
2013-09-13 14:54:00,87.0,49.0,29.94,WNW,289,10.0,16.0,27,0.00,,,0.00,767.000000,,2013-09-13 21:54:00,
2013-09-13 15:24:00,89.0,53.0,29.92,WNW,290,10.0,17.0,29,0.00,,,0.00,675.000000,,2013-09-13 22:24:00,
2013-09-13 15:33:00,89.0,53.0,29.92,WNW,290,10.0,17.0,29,0.00,,,0.00,675.000000,,2013-09-13 22:33:00,
2013-09-13 15:43:00,89.0,53.0,29.92,WNW,290,10.0,17.0,29,0.00,,,0.00,675.000000,,2013-09-13 22:43:00,
2013-09-13 15:53:00,89.0,53.0,29.92,WNW,290,10.0,17.0,29,0.00,,,0.00,675.000000,,2013-09-13 22:53:00,
2013-09-13 16:22:00,95.0,55.0,29.92,SSW,207,2.0,13.0,26,0.00,,,0.00,486.000000,,2013-09-13 23:22:00,
2013-09-13 16:33:00,95.0,55.0,29.92,SSW,207,2.0,13.0,26,0.00,,,0.00,486.000000,,2013-09-13 23:33:00,
2013-09-13 16:42:00,95.0,55.0,29.92,SSW,207,2.0,13.0,26,0.00,,,0.00,486.000000,,2013-09-13 23:42:00,
2013-09-13 17:22:00,94.0,49.0,29.91,East,86,7.0,14.0,22,0.00,,,0.00,226.000000,,2013-09-14 00:22:00,
2013-09-13 17:32:00,94.0,49.0,29.91,East,86,7.0,14.0,22,0.00,,,0.00,226.000000,,2013-09-14 00:32:00,
2013-09-13 18:21:00,88.0,49.0,29.90,East,83,3.0,12.0,26,-99.99,,,0.00,19.000000,,2013-09-14 01:21:00,
2013-09-13 18:33:00,88.0,49.0,29.90,East,83,3.0,12.0,26,-99.99,,,0.00,19.000000,,2013-09-14 01:33:00,
2013-09-13 18:42:00,88.0,49.0,29.90,East,83,3.0,12.0,26,-99.99,,,0.00,19.000000,,2013-09-14 01:42:00,
2013-09-13 18:52:00,88.0,49.0,29.90,East,83,3.0,12.0,26,-99.99,,,0.00,19.000000,,2013-09-14 01:52:00,
2013-09-13 19:22:00,80.0,50.0,29.90,ESE,103,1.0,5.0,35,0.00,,,0.00,0.000000,,2013-09-14 02:22:00,
2013-09-13 19:33:00,80.0,50.0,29.90,ESE,103,1.0,5.0,35,0.00,,,0.00,0.000000,,2013-09-14 02:33:00,
2013-09-13 19:42:00,80.0,50.0,29.90,ESE,103,1.0,5.0,35,0.00,,,0.00,0.000000,,2013-09-14 02:42:00,
2013-09-13 19:52:00,80.0,50.0,29.90,ESE,103,1.0,5.0,35,0.00,,,0.00,0.000000,,2013-09-14 02:52:00,
2013-09-13 20:22:00,79.0,50.0,29.90,NE,51,7.0,8.0,36,0.00,,,0.00,0.000000,,2013-09-14 03:22:00,
2013-09-13 20:34:00,79.0,50.0,29.90,NE,51,7.0,8.0,36,0.00,,,0.00,0.000000,,2013-09-14 03:34:00,
2013-09-13 20:44:00,79.0,50.0,29.90,NE,51,7.0,8.0,36,0.00,,,0.00,0.000000,,2013-09-14 03:44:00,
2013-09-13 20:54:00,79.0,50.0,29.90,NE,51,7.0,8.0,36,0.00,,,0.00,0.000000,,2013-09-14 03:54:00,
2013-09-13 21:24:00,78.0,48.0,29.91,East,93,17.0,49.0,35,0.00,,,0.00,0.000000,,2013-09-14 04:24:00,
2013-09-13 21:34:00,78.0,48.0,29.91,East,93,17.0,49.0,35,0.00,,,0.00,0.000000,,2013-09-14 04:34:00,
2013-09-13 22:22:00,77.0,47.0,29.92,ESE,103,5.0,8.0,35,0.00,,,0.00,0.000000,,2013-09-14 05:22:00,
2013-09-13 22:34:00,77.0,47.0,29.92,ESE,103,5.0,8.0,35,0.00,,,0.00,0.000000,,2013-09-14 05:34:00,
2013-09-13 23:21:00,74.0,47.0,29.92,SE,128,4.0,7.0,38,0.00,,,0.00,0.000000,,2013-09-14 06:21:00,
2013-09-13 23:32:00,74.0,47.0,29.92,SE,128,4.0,7.0,38,0.00,,,0.00,0.000000,,2013-09-14 06:32:00,
2013-09-13 23:42:00,74.0,47.0,29.92,SE,128,4.0,7.0,38,0.00,,,0.00,0.000000,,2013-09-14 06:42:00,
2013-09-13 23:52:00,74.0,47.0,29.92,SE,128,4.0,7.0,38,0.00,,,0.00,0.000000,,2013-09-14 06:52:00,